EW5365 Weather Reports


time (UTC)temp
C
wind
direction
speed
KPH
gust
KPH
rain 1hr
cm
rain 24hr
cm
rain mn
cm
humidity
%
barometer
mb
20260502130722 17 253 1.6 14.5 0.00 0.00 0.00 20 1018.2
20260502123726 17 278 0.0 0.0 0.00 0.00 0.00 19 1017.8
20260502123214 17 286 0.0 4.8 0.00 0.00 0.00 19 1017.7
20260502122723 17 269 0.0 9.7 0.00 0.00 0.00 19 1017.6
20260502122231 17 267 1.6 4.8 0.00 0.00 0.00 19 1017.6
20260502121740 17 267 0.0 0.0 0.00 0.00 0.00 19 1017.5
20260502121229 17 267 0.0 0.0 0.00 0.00 0.00 19 1017.5
20260502120717 17 271 0.0 0.0 0.00 0.00 0.00 18 1017.4
20260502120246 17 271 0.0 0.0 0.00 0.00 0.00 19 1017.3
20260502115715 17 271 0.0 1.6 0.00 0.00 0.00 18 1017.3
20260502115223 17 269 0.0 1.6 0.00 0.00 0.00 18 1017.2
20260502114730 17 278 0.0 1.6 0.00 0.00 0.00 18 1017.2
20260502113733 17 252 0.0 0.0 0.00 0.00 0.00 18 1017.3
20260502113220 17 277 0.0 0.0 0.00 0.00 0.00 18 1017.3
20260502112730 17 285 0.0 0.0 0.00 0.00 0.00 18 1017.2
20260502112216 17 317 0.0 1.6 0.00 0.00 0.00 18 1017.2
20260502111727 18 317 0.0 1.6 0.00 0.00 0.00 18 1017.2
20260502111218 18 260 0.0 0.0 0.00 0.00 0.00 18 1017.3
20260502110726 18 245 0.0 0.0 0.00 0.00 0.00 18 1017.3
20260502110214 18 256 0.0 1.6 0.00 0.00 0.00 18 1017.3
20260502105744 18 256 0.0 1.6 0.00 0.00 0.00 18 1017.3
20260502105251 18 284 0.0 0.0 0.00 0.00 0.00 18 1017.2
20260502104719 18 271 0.0 1.6 0.00 0.00 0.00 17 1017.3
20260502104213 18 295 0.0 1.6 0.00 0.00 0.00 17 1017.2
20260502103722 18 295 0.0 0.0 0.00 0.00 0.00 17 1017.2
20260502103251 18 236 0.0 1.6 0.00 0.00 0.00 17 1017.2
20260502102720 18 235 0.0 1.6 0.00 0.00 0.00 17 1017.2
20260502102227 18 261 0.0 1.6 0.00 0.00 0.00 17 1017.1
20260502101715 18 269 0.0 0.0 0.00 0.00 0.00 17 1017.1
20260502100720 18 277 0.0 0.0 0.00 0.00 0.00 16 1017.1
20260502100229 18 266 0.0 12.9 0.00 0.00 0.00 17 1017.2
20260502091215 18 291 0.0 0.0 0.00 0.00 0.00 18 1017.1
20260502090723 18 281 0.0 0.0 0.00 0.00 0.00 18 1017.2
20260502090232 18 284 0.0 0.0 0.00 0.00 0.00 17 1017.2
20260502071216 17 259 0.0 0.0 0.00 0.00 0.00 19 1017.2
20260502070746 16 259 0.0 0.0 0.00 0.00 0.00 19 1017.1
20260502070254 16 259 0.0 0.0 0.00 0.00 0.00 20 1017.1
20260502065722 15 291 0.0 0.0 0.00 0.00 0.00 21 1017.1
20260502065250 14 285 0.0 0.0 0.00 0.00 0.00 23 1017.0
20260502064738 14 323 0.0 0.0 0.00 0.00 0.00 25 1017.0
20260502064227 14 323 0.0 0.0 0.00 0.00 0.00 26 1016.9
20260502063716 14 323 0.0 0.0 0.00 0.00 0.00 27 1016.8
20260502063228 14 323 0.0 0.0 0.00 0.00 0.00 24 1016.8
20260502062739 14 323 0.0 0.0 0.00 0.00 0.00 25 1016.8
20260502062225 14 325 0.0 0.0 0.00 0.00 0.00 24 1016.8
20260502061713 14 326 0.0 0.0 0.00 0.00 0.00 26 1016.7
20260502061223 14 326 0.0 0.0 0.00 0.00 0.00 25 1016.7
20260502060731 14 326 0.0 0.0 0.00 0.00 0.00 25 1016.7
20260502060220 14 326 0.0 0.0 0.00 0.00 0.00 25 1016.6
20260502055226 14 326 0.0 0.0 0.00 0.00 0.00 24 1016.5
20260502054713 15 326 0.0 0.0 0.00 0.00 0.00 25 1016.5
20260502054223 15 326 0.0 0.0 0.00 0.00 0.00 23 1016.5
20260502053715 15 326 0.0 0.0 0.00 0.00 0.00 25 1016.5
20260502053224 15 326 0.0 0.0 0.00 0.00 0.00 23 1016.5
20260502052714 15 326 0.0 0.0 0.00 0.00 0.00 24 1016.5
20260502052223 15 326 0.0 0.0 0.00 0.00 0.00 25 1016.4
20260502051731 15 326 0.0 0.0 0.00 0.00 0.00 23 1016.4
20260502051222 15 326 0.0 0.0 0.00 0.00 0.00 23 1016.3
20260502050731 15 326 0.0 0.0 0.00 0.00 0.00 22 1016.3
20260502050220 14 326 0.0 0.0 0.00 0.00 0.00 24 1016.3
20260502045727 14 327 0.0 0.0 0.00 0.00 0.00 26 1016.2
20260502045214 14 327 0.0 0.0 0.00 0.00 0.00 24 1016.2
20260502044726 13 21 0.0 0.0 0.00 0.00 0.00 26 1016.1
20260502044215 13 22 0.0 0.0 0.00 0.00 0.00 29 1016.0
20260502043724 14 22 0.0 0.0 0.00 0.00 0.00 27 1015.9
20260502043213 14 22 0.0 0.0 0.00 0.00 0.00 28 1015.9
20260502042722 15 22 0.0 0.0 0.00 0.00 0.00 29 1015.9
20260502042231 15 22 0.0 0.0 0.00 0.00 0.00 29 1015.8
20260502041720 15 22 0.0 0.0 0.00 0.00 0.00 28 1015.6
20260502041230 16 22 0.0 0.0 0.00 0.00 0.00 27 1015.6
20260502040717 16 22 0.0 0.0 0.00 0.00 0.00 27 1015.5
20260502040223 17 22 0.0 0.0 0.00 0.00 0.00 26 1015.5
20260502035737 17 22 0.0 0.0 0.00 0.00 0.00 25 1015.3
20260502035224 18 22 0.0 0.0 0.00 0.00 0.00 24 1015.3
20260502034732 19 22 0.0 0.0 0.00 0.00 0.00 23 1015.2
20260502034221 20 22 0.0 0.0 0.00 0.00 0.00 21 1015.1
20260502033729 20 22 0.0 0.0 0.00 0.00 0.00 19 1015.0
20260502033217 21 22 0.0 0.0 0.00 0.00 0.00 17 1014.9
20260502032728 22 22 0.0 0.0 0.00 0.00 0.00 17 1014.8
20260502032214 22 22 0.0 0.0 0.00 0.00 0.00 15 1014.7
20260502031723 22 22 0.0 0.0 0.00 0.00 0.00 12 1014.6
20260502031232 23 22 0.0 0.0 0.00 0.00 0.00 12 1014.5
20260502030719 23 355 0.0 0.0 0.00 0.00 0.00 13 1014.3
20260502030225 24 355 0.0 0.0 0.00 0.00 0.00 14 1014.1
20260502025717 24 360 0.0 0.0 0.00 0.00 0.00 12 1014.1
20260502025223 25 360 0.0 0.0 0.00 0.00 0.00 12 1014.1
20260502024729 25 360 0.0 0.0 0.00 0.00 0.00 11 1013.9
20260502024218 25 360 0.0 0.0 0.00 0.00 0.00 11 1013.9
20260502023726 26 27 0.0 0.0 0.00 0.00 0.00 10 1013.8
20260502023213 26 28 0.0 0.0 0.00 0.00 0.00 9 1013.8
20260502022723 26 28 0.0 0.0 0.00 0.00 0.00 9 1013.8
20260502022212 26 28 0.0 0.0 0.00 0.00 0.00 9 1013.8
20260502021720 27 11 0.0 0.0 0.00 0.00 0.00 9 1013.7
20260502021229 27 5 0.0 0.0 0.00 0.00 0.00 9 1013.7
20260502020721 27 20 0.0 0.0 0.00 0.00 0.00 9 1013.6
20260502020229 27 15 0.0 3.2 0.00 0.00 0.00 9 1013.6
20260502015717 27 20 0.0 3.2 0.00 0.00 0.00 9 1013.5
20260502015224 27 336 0.0 16.1 0.00 0.00 0.00 10 1013.5
20260502014732 27 336 0.0 16.1 0.00 0.00 0.00 9 1013.4
20260502014219 27 15 0.0 12.9 0.00 0.00 0.00 9 1013.4
20260502013747 28 5 1.6 6.4 0.00 0.00 0.00 10 1013.4
20260502013213 28 355 0.0 4.8 0.00 0.00 0.00 10 1013.3
20260502012721 28 15 0.0 4.8 0.00 0.00 0.00 9 1013.4
20260502012229 28 17 0.0 11.3 0.00 0.00 0.00 10 1013.3
20260502011716 28 26 3.2 8.0 0.00 0.00 0.00 9 1013.3
20260502011247 28 333 1.6 8.0 0.00 0.00 0.00 9 1013.3
20260502010719 28 25 0.0 0.0 0.00 0.00 0.00 10 1013.3
20260502010226 28 293 0.0 16.1 0.00 0.00 0.00 11 1013.3
20260502005715 28 20 3.2 17.7 0.00 0.00 0.00 11 1013.4
20260502005223 28 21 1.6 17.7 0.00 0.00 0.00 9 1013.3
20260502004731 28 5 0.0 20.9 0.00 0.00 0.00 10 1013.3
20260502004221 28 18 8.0 20.9 0.00 0.00 0.00 9 1013.3
20260502003728 28 41 0.0 17.7 0.00 0.00 0.00 10 1013.3
20260502003218 28 15 8.0 17.7 0.00 0.00 0.00 9 1013.3
20260502002729 29 26 6.4 17.7 0.00 0.00 0.00 10 1013.4
20260502002222 29 350 0.0 16.1 0.00 0.00 0.00 10 1013.3
20260502001227 29 78 0.0 0.0 0.00 0.00 0.00 10 1013.4
20260502000716 29 82 0.0 1.6 0.00 0.00 0.00 10 1013.4
20260502000247 29 81 0.0 17.7 0.00 0.00 0.00 11 1013.4
20260501235714 29 46 4.8 17.7 0.00 0.00 0.00 10 1013.5
20260501235223 29 38 0.0 16.1 0.00 0.00 0.00 11 1013.5
20260501234732 29 282 9.7 19.3 0.00 0.00 0.00 10 1013.5
20260501233716 29 51 1.6 16.1 0.00 0.00 0.00 10 1013.4
20260501233224 29 338 0.0 3.2 0.00 0.00 0.00 11 1013.3
20260501232732 29 297 0.0 1.6 0.00 0.00 0.00 11 1013.4
20260501232219 29 311 0.0 8.0 0.00 0.00 0.00 11 1013.4
20260501231727 29 52 0.0 16.1 0.00 0.00 0.00 10 1013.5
20260501231219 30 78 0.0 3.2 0.00 0.00 0.00 10 1013.5
20260501230725 30 32 0.0 1.6 0.00 0.00 0.00 12 1013.5
20260501230214 29 277 0.0 1.6 0.00 0.00 0.00 14 1013.5
20260501225723 29 258 0.0 12.9 0.00 0.00 0.00 10 1013.6
20260501225251 30 302 0.0 16.1 0.00 0.00 0.00 11 1013.7
20260501224717 29 360 3.2 16.1 0.00 0.00 0.00 10 1013.7
20260501224227 29 273 3.2 16.1 0.00 0.00 0.00 10 1013.7
20260501223715 29 323 0.0 12.9 0.00 0.00 0.00 13 1013.8
20260501223223 29 274 0.0 20.9 0.00 0.00 0.00 11 1013.8
20260501222733 29 305 4.8 20.9 0.00 0.00 0.00 11 1013.8
20260501222220 29 22 3.2 19.3 0.00 0.00 0.00 12 1013.9
20260501221713 28 259 0.0 12.9 0.00 0.00 0.00 14 1014.0
20260501221223 28 317 1.6 12.9 0.00 0.00 0.00 12 1014.1
20260501220731 28 323 0.0 8.0 0.00 0.00 0.00 14 1014.2
20260501220220 28 330 1.6 22.5 0.00 0.00 0.00 12 1014.2
20260501215730 28 345 4.8 22.5 0.00 0.00 0.00 12 1014.2
20260501215217 28 355 0.0 16.1 0.00 0.00 0.00 12 1014.3
20260501214725 28 288 4.8 16.1 0.00 0.00 0.00 12 1014.4
20260501214214 28 30 1.6 19.3 0.00 0.00 0.00 13 1014.5
20260501213722 28 27 4.8 19.3 0.00 0.00 0.00 12 1014.6
20260501213214 28 348 4.8 12.9 0.00 0.00 0.00 14 1014.6
20260501212221 28 59 0.0 17.7 0.00 0.00 0.00 11 1014.7
20260501211730 28 53 0.0 17.7 0.00 0.00 0.00 11 1014.8
20260501211220 28 5 0.0 1.6 0.00 0.00 0.00 14 1014.9
20260501210730 28 322 0.0 0.0 0.00 0.00 0.00 13 1015.0
20260501210218 28 48 0.0 0.0 0.00 0.00 0.00 12 1015.0
20260501205727 28 38 0.0 17.7 0.00 0.00 0.00 11 1015.0
20260501205215 28 15 1.6 17.7 0.00 0.00 0.00 11 1015.1
20260501204723 28 61 3.2 17.7 0.00 0.00 0.00 13 1015.2
20260501204213 28 38 3.2 17.7 0.00 0.00 0.00 13 1015.2
20260501203725 28 45 1.6 17.7 0.00 0.00 0.00 12 1015.2
20260501203214 28 12 0.0 16.1 0.00 0.00 0.00 12 1015.3
20260501202723 28 21 3.2 20.9 0.00 0.00 0.00 14 1015.4
20260501202231 28 5 1.6 20.9 0.00 0.00 0.00 11 1015.4
20260501201721 28 59 0.0 22.5 0.00 0.00 0.00 12 1015.4
20260501201230 28 41 8.0 22.5 0.00 0.00 0.00 12 1015.5
20260501200719 28 290 1.6 19.3 0.00 0.00 0.00 14 1015.6
20260501195723 28 27 0.0 19.3 0.00 0.00 0.00 12 1015.6
20260501195231 28 26 1.6 22.5 0.00 0.00 0.00 13 1015.8
20260501194717 28 43 3.2 22.5 0.00 0.00 0.00 12 1015.9
20260501194247 28 49 0.0 16.1 0.00 0.00 0.00 13 1015.9
20260501193718 28 265 1.6 14.5 0.00 0.00 0.00 13 1016.0
20260501193226 28 341 0.0 11.3 0.00 0.00 0.00 12 1016.1
20260501192734 28 288 1.6 22.5 0.00 0.00 0.00 14 1016.1
20260501192221 27 335 3.2 22.5 0.00 0.00 0.00 13 1016.2
20260501191730 27 18 1.6 24.1 0.00 0.00 0.00 12 1016.1
20260501191221 27 40 1.6 24.1 0.00 0.00 0.00 13 1016.3
20260501190730 27 23 1.6 17.7 0.00 0.00 0.00 13 1016.4
20260501190219 27 25 3.2 20.9 0.00 0.00 0.00 12 1016.5
20260501185729 27 28 4.8 20.9 0.00 0.00 0.00 12 1016.6
20260501185216 27 9 4.8 19.3 0.00 0.00 0.00 13 1016.6
20260501184727 27 47 0.0 20.9 0.00 0.00 0.00 14 1016.7
20260501184217 27 30 1.6 19.3 0.00 0.00 0.00 12 1016.8
20260501183725 27 281 6.4 17.7 0.00 0.00 0.00 13 1016.8
20260501183231 27 355 0.0 22.5 0.00 0.00 0.00 13 1016.9
20260501182719 27 323 8.0 22.5 0.00 0.00 0.00 13 1016.9
20260501182226 27 335 0.0 17.7 0.00 0.00 0.00 15 1017.0
20260501181713 27 340 0.0 20.9 0.00 0.00 0.00 14 1016.9
20260501181223 27 355 6.4 20.9 0.00 0.00 0.00 13 1017.0
20260501180751 27 323 3.2 17.7 0.00 0.00 0.00 15 1017.0
20260501180217 27 313 1.6 6.4 0.00 0.00 0.00 13 1017.0
20260501175725 27 39 0.0 12.9 0.00 0.00 0.00 13 1017.1
20260501175216 26 351 0.0 17.7 0.00 0.00 0.00 13 1017.1
20260501174724 26 345 3.2 17.7 0.00 0.00 0.00 14 1017.0
20260501174213 26 342 1.6 14.5 0.00 0.00 0.00 13 1017.1
20260501173721 26 34 0.0 3.2 0.00 0.00 0.00 14 1017.1
20260501173230 26 5 0.0 11.3 0.00 0.00 0.00 14 1017.1
20260501172718 26 11 0.0 11.3 0.00 0.00 0.00 15 1017.2
20260501172226 26 11 1.6 9.7 0.00 0.00 0.00 13 1017.2
20260501171715 26 332 0.0 19.3 0.00 0.00 0.00 15 1017.2
20260501170719 26 286 4.8 14.5 0.00 0.00 0.00 15 1017.2
20260501170226 26 325 1.6 8.0 0.00 0.00 0.00 14 1017.2
20260501165719 26 22 0.0 17.7 0.00 0.00 0.00 15 1017.2
20260501165225 26 355 0.0 4.8 0.00 0.00 0.00 15 1017.3
20260501164732 25 22 0.0 16.1 0.00 0.00 0.00 15 1017.2
20260501164222 25 349 1.6 16.1 0.00 0.00 0.00 14 1017.3
20260501163729 25 319 0.0 14.5 0.00 0.00 0.00 15 1017.2
20260501163216 25 319 3.2 14.5 0.00 0.00 0.00 15 1017.2
20260501162727 25 315 0.0 14.5 0.00 0.00 0.00 15 1017.2
20260501162215 25 326 1.6 20.9 0.00 0.00 0.00 14 1017.2
20260501161724 25 321 1.6 20.9 0.00 0.00 0.00 15 1017.2
20260501161233 25 20 1.6 19.3 0.00 0.00 0.00 16 1017.2
20260501160720 25 355 1.6 17.7 0.00 0.00 0.00 16 1017.2
20260501160232 25 327 1.6 17.7 0.00 0.00 0.00 15 1017.2
20260501155721 25 340 0.0 6.4 0.00 0.00 0.00 17 1017.1
20260501155228 24 5 0.0 6.4 0.00 0.00 0.00 16 1017.1
20260501154716 24 13 0.0 9.7 0.00 0.00 0.00 16 1017.1
20260501154227 24 321 1.6 9.7 0.00 0.00 0.00 16 1017.1
20260501153715 23 336 0.0 24.1 0.00 0.00 0.00 17 1017.0
20260501153224 23 310 3.2 24.1 0.00 0.00 0.00 16 1016.9
20260501152713 23 338 0.0 12.9 0.00 0.00 0.00 18 1016.9
20260501152222 23 332 0.0 6.4 0.00 0.00 0.00 19 1016.9
20260501151713 22 18 0.0 8.0 0.00 0.00 0.00 17 1017.0
20260501150716 22 314 0.0 14.5 0.00 0.00 0.00 18 1016.9
20260501150224 22 283 1.6 6.4 0.00 0.00 0.00 19 1016.9
20260501145713 22 302 0.0 6.4 0.00 0.00 0.00 18 1017.0
20260501145221 21 299 0.0 1.6 0.00 0.00 0.00 20 1016.9
20260501144750 21 238 0.0 6.4 0.00 0.00 0.00 25 1016.9
20260501144217 21 348 0.0 9.7 0.00 0.00 0.00 21 1016.9